Location: Newark
(39.1833°N, 3.3000°W)
Time: 17:33:29
(UTC+00:00)

N. Korean satellite - Visible Passes

Search period start: 24 March 2019 00:00
Search period end: 03 April 2019 00:00
Orbit: 456 x 510 km, 97.2° (Epoch: 23 March)

Date Brightness Start Highest point End Pass type
(mag) Time Alt. Az. Time Alt. Az. Time Alt. Az.
24 Mar 9.9 05:27:28 10° ENE 05:29:35 15° E 05:31:42 10° SE visible
28 Mar 10.1 05:21:57 10° ENE 05:23:40 13° E 05:25:23 10° ESE visible
01 Apr 10.3 05:16:37 10° ENE 05:17:42 11° E 05:18:48 10° ESE visible
